Other Surface Observations
Issued by NWS Charleston, SC

Home | Current Version | Previous Version | Text Only | Print | Product List | Glossary On
Versions: 1 2 3 4 5 6 7 8 9 10 11 12 13 14 15 16 17 18 19 20 21 22 23 24 25 26 27 28 29 30 31 32 33 34 35 36 37 38 39 40 41 42 43 44 45 46 47 48 49 50
000
SXUS52 KCHS 172027
OSOCHS

MARINE OBSERVATIONS
NATIONAL WEATHER SERVICE CHARLESTON SC
300 PM EST TUE JAN 17 2017

...DOWNTOWN CHARLESTON AND HARBOR...

CITY           SKY/WX    TMP DP  RH WIND       PRES   REMARKS
WATERFRONT PRK   N/A     74  61  63 SW5       30.16F

...LAKE MOULTRIE...

CITY           SKY/WX    TMP DP  RH WIND       PRES   REMARKS
PINOPOLIS        N/A     57  57 100 E5        30.10F

...LAKE AND SUPPLEMENTAL COASTAL OBSERVATIONS...

STATION/POSITION TIME  TEMP    WIND        PRES    WAVE   SWELL
                       AIR SEA DIR/SP/G            HT/PER HT/PER/DIR
                 (UTC) (F)     (DEG/KT/KT) (MB)    (FT/S) (FT/S/D)
FORT PULASKI     2000   68 56  190/  3/  4 1022.4
SAPELO ISLAND    2000   77     170/  4     1022.0
WINYAH BAY       1945   63     140/  5     1022.0F
LAKE MURRAY      2020   70     240/ 11/ 15 1020.0F
ACE BASIN NERRS  1945   70     170/  1     1022.0F


...C-MAN AND BUOY OBSERVATIONS...

STATION/POSITION TIME  TEMP    WIND        PRES    WAVE   SWELL
                       AIR SEA DIR/SP/G            HT/PER HT/PER/DIR
                 (UTC) (F)     (DEG/KT/KT) (MB)    (FT/S) (FT/S/D)
BUOY 41004       1950   71 71  250/  8/  8 1021.8F   2/ 9   2/120/ 9
BUOY 41008       1950   60 61   10/  2/  2 1022.5F   2/ 5   2/100/ 5
FOLLY BEACH CMAN 2000   61     200/  5/  6 1022.8F
CAPERS NS BUOY   1908   57 55  210/  4/  6 1022.3F
FRIPP NS BUOY    2008   61 57  130/  2/  4 1022.1F
5E ST. MARYS GA  2000      62                N/A     2/11   2/100/11


STATION/POSITION TIME  TEMP    WIND        PRES    WAVE   SWELL
                       AIR SEA DIR/SP/G            HT/PER HT/PER/DIR
                 (UTC) (F)     (DEG/KT/KT) (MB)    (FT/S) (FT/S/D)
FRYING PAN BUOY  2010   70 72  260/  8/ 10 1021.9
BUOY 41025       1950   64 73  200/  4/  6 1021.4F   2/ 8   2/ 90/ 8
CAPE LOOKOUT NC  2000   67     220/  6/  8 1021.1F
BUOY 41002       1950   72 72  220/ 12/ 14 1023.7F   3/ 8   2/120/ 8
BUOY 41010       NOT AVBL
ST AUGUSTINE FL  2000   67 65  120/  8/  8 1023.6F

$$




USA.gov is the U.S. government's official web portal to all federal, state and local government web resources and services.